Regional Weather Roundup
Issued by NWS Upton, NY

Current Version | Previous Version | Graphics & Text | Print | Product List | Glossary Off
Versions: 1 2 3 4 5 6 7 8 9 10 11 12 13 14 15 16 17 18 19 20 21 22 23 24 25 26 27 28 29 30 31 32 33 34 35 36 37 38 39 40 41 42 43 44 45 46 47 48 49 50

000
ASUS41 KOKX 260105
RWROKX

REGIONAL WEATHER ROUNDUP
NATIONAL WEATHER SERVICE NEW YORK NY
800 PM EST THU DEC 25 2014

NOTE: "FAIR" INDICATES FEW OR NO CLOUDS BELOW 12,000 FEET WITH NO
SIGNIFICANT WEATHER AND/OR OBSTRUCTIONS TO VISIBILITY.

NYZ071-072-176-178-NJZ106-104-260200-
NEW YORK CITY METRO AREA


CITY           SKY/WX    TMP DP  RH WIND       PRES   REMARKS
CENTRAL PARK   CLEAR     48  29  47 W9G16     30.06R
LAGUARDIA APRT PTCLDY    48  30  49 W13G22    30.03R
KENNEDY INTL   PTCLDY    48  29  47 W13       30.04R
NEWARK/LIBERTY PTCLDY    47  30  51 W8        30.05R
BRNX BOT. GARD   N/A    N/A N/A N/A NW9       30.04S
TETERBORO      PTCLDY    47  30  51 W7        30.04R
$$

NYZ177-179-078>081-260200-
LONG ISLAND NEW YORK

CITY           SKY/WX    TMP DP  RH WIND       PRES   REMARKS
FARMINGDALE    CLEAR     47  30  51 W9        30.02R
ISLIP          PTCLDY    47  29  49 W9G21     30.00R
SHIRLEY        CLEAR     47  30  51 W12       30.01R
WESTHAMPTON    CLEAR     44  29  55 W9        30.01R
MONTAUK POINT    N/A     48  34  58 W10G18    29.98R
$$

NYZ052-065-067-260200-
HUDSON VALLEY

CITY           SKY/WX    TMP DP  RH WIND       PRES   REMARKS
WHITE PLAINS   CLEAR     45  28  51 NW22G30   29.99R
NEWBURGH       PTCLDY    45  30  57 NW14G26   30.02R
MONTGOMERY     CLEAR     46  26  45 NW17G28   30.00R
POUGHKEEPSIE   MOCLDY    47  28  47 W13       30.00R
ALBANY         CLOUDY    43  31  62 NW9       29.99R
$$

NJZ001-105-106-008-010-013-015-019>022-104-260200-
NEW JERSEY

CITY           SKY/WX    TMP DP  RH WIND       PRES   REMARKS
NEWARK/LIBERTY PTCLDY    47  30  51 W8        30.05R
TETERBORO      PTCLDY    47  30  51 W7        30.04R
CALDWELL       CLEAR     46  28  49 NW13G21   30.04R
MORRISTOWN     PTCLDY    48  34  57 NW8       30.05R
SOMERVILLE     CLEAR     45  30  55 W7        30.05R
SUSSEX         PTCLDY    43  29  57 VRB6      30.03R
ANDOVER        NOT AVBL
TRENTON        CLEAR     45  29  53 W6        30.08R
MILLVILLE      CLEAR     45  31  58 W9        30.12R
ATLANTIC CITY  CLEAR     43  31  62 W7        30.10R
WRIGHTSTOWN    CLEAR     46  30  54 W12G17    30.07R
TOMS RIVER     CLEAR     45  30  57 W6        30.08R
BELMAR         CLEAR     46  28  49 W13G20    30.06R
$$

PAZ047>061-062-071-260200-
EASTERN PENNSYLVANIA

CITY           SKY/WX    TMP DP  RH WIND       PRES   REMARKS
PHILADELPHIA   PTCLDY    45  30  55 W8        30.12R
ALLENTOWN      PTCLDY    44  29  55 W8        30.09R
SCRANTON       CLOUDY    42  29  59 W18G24    30.06R
$$

CTZ002-004>006-009-010-012-RIZ004-006-007-MAZ004-011-015-260200-
SOUTHERN NEW ENGLAND
 IN CT

CITY           SKY/WX    TMP DP  RH WIND       PRES   REMARKS
BRADLEY INTL   PTCLDY    45  28  51 W10       29.95R
HARTFORD       CLEAR     46  28  49 SW12      29.96R
DANBURY        CLEAR     45  26  47 W8G17     29.99R
WTRBRY/OXFORD  CLEAR     45  27  49 W9G23     29.97R
BRIDGEPORT     CLEAR     48  29  47 W23G33    29.98R
MERIDEN        CLEAR     45  27  49 W9        29.97R
NEW HAVEN      CLEAR     50  29  44 W10G23    29.97R
CHESTER        FAIR      45  30  57 W8        29.96R
GROTON         CLEAR     45  30  55 W10       29.95R
WILLIMANTIC    CLEAR     43  29  57 SW5       29.93R

 IN RI

CITY           SKY/WX    TMP DP  RH WIND       PRES   REMARKS
PROVIDENCE     CLEAR     43  29  57 S6        29.92R
BLOCK ISLAND   CLEAR     46  34  61 W14G20    29.95R
WESTERLY       CLEAR     46  30  53 W8        29.95R

 IN MA

CITY           SKY/WX    TMP DP  RH WIND       PRES   REMARKS
BOSTON         CLEAR     46  30  53 W14       29.87R
WORCESTER      CLEAR     42  28  57 W22G32    29.85R
WESTFIELD      MOCLDY    47  27  45 W16G22    29.94R
PROVINCETOWN   CLEAR     46  34  61 W14       29.88R
NANTUCKET      CLEAR     46  34  62 W12       29.91R
$$

ANZ330-335-338-340-345-350-353-355-260200-
COASTAL MARINE OBSERVATIONS


STATION/POSITION TIME  SKY/WX   TEMP    WIND        PRES    VSBY  WAVE
                                AIR SEA DIR/SP/G                  HT/PER
                 (UTC)          (F)     (DEG/KT/KT) (MB)    (MI)  (FT/S)
NY HARB ENTRANCE 0100            48 46  280/ 17/ 21 1017.5          3/ 8
4S FIRE IS       0100               47                N/A           4/ 8
20S FIRE ISLAND  0000            49 49              1016.4          6/ 6
23SW MTP         0100                                 N/A           7/ 8
HUDSON CANYON    0100            51 55  290/ 23/ 29 1016.6
EXECUTION ROCKS  0100            48 42  290/ 16/ 23   N/A
WESTERN LI SOUND 0100            47     280/  8/  8   N/A           1/ 3
CENTRAL LI SOUND 0100            47 44  260/ 16/ 21   N/A           3/ 3
EASTERN LI SOUND NOT AVBL
ROBBINS REEF     0100            47                 1015.8
$$


>>>>>>>>>>>>>>>>>>>>>>>>>>>> KEY <<<<<<<<<<<<<<<<<<<<<<<<<<<
>                                                          <
>     SKY/WX - SKY CONDITION/PRESENT WEATHER               <
>     TMP    - TEMPERATURE IN FAHRENHEIT                   <
>     DP     - DEWPOINT IN FAHRENHEIT                      <
>     RH     - RELATIVE HUMIDITY IN PERCENT                <
>     WIND   - DIRECTION AND SPEED IN MPH                  <
>     PRES   - MEAN SEA LEVEL PRESSURE IN INCHES OF HG     <
>     WCI    - WIND CHILL INDEX                            <
>     VSB    - VISIBILITY IN MILES                         <
>     HX     - HEAT INDEX                                  <
>     TC     - TEMPERATURE IN CELSIUS                      <
>     VRB    - VARIABLE WIND DIRECTION                     <
>                                                          <
>>>>>>>>>>>>>>>>>>>>>>>>>>>> KEY <<<<<<<<<<<<<<<<<<<<<<<<<<<




USA.gov is the U.S. government's official web portal to all federal, state and local government web resources and services.